Location: Praha
(50.0830°N, 14.4670°E)
Time: 22:15:23
(UTC+02:00)

ISS - Pass Details

Date: 10 September 2019
Orbit: 411 x 421 km, 51.6° (Epoch: 19 September)

Event Time Altitude Azimuth Distance (km) Brightness Sun altitude
Exits shadow 04:42:58 35° 291° (WNW) 698 -3.0 -16.9°
Maximum altitude 04:44:15 77° 11° (N) 431 -3.7 -16.7°
Drops below altitude 10° 04:47:36 10° 99° (E) 1,492 -0.2 -16.2°
Sets 04:49:42 0° 101° (E) 2,357 0.9 -15.9°
